Regional Weather Roundup
Issued by NWS Cleveland, OH

Home | Current Version | Previous Version | Graphics & Text | Print | Product List | Glossary On
Versions: 1 2 3 4 5 6 7 8 9 10 11 12 13 14 15 16 17 18 19 20 21 22 23 24 25 26 27 28 29 30 31 32 33 34 35 36 37 38 39 40 41 42 43 44 45 46 47 48 49 50
000
ASUS41 KCLE 141502
RWRCLE
OHIO REGIONAL WEATHER ROUNDUP
NATIONAL WEATHER SERVICE CLEVELAND, OH
1000 AM EST SUN FEB 14 2016

NOTE: "FAIR" INDICATES FEW OR NO CLOUDS BELOW 12,000 FEET WITH NO
SIGNIFICANT WEATHER AND/OR OBSTRUCTIONS TO VISIBILITY.

OHZ001>008-015>018-024>027-034-035-043-044-141600-
   NORTHWEST OHIO

CITY           SKY/WX    TMP DP  RH WIND       PRES   REMARKS
DEFIANCE       SUNNY     15   3  59 VRB7      30.45F WCI   5
FINDLAY        SUNNY     13   6  74 SE9       30.44F WCI   1
TOLEDO EXPRESS SUNNY     13   4  67 S8        30.46F WCI   2
TOLEDO EXEC    SUNNY     15   6  67 S13       30.48F WCI   1
LIMA           SUNNY     13   6  74 S12       30.41F WCI  -1
$$

OHZ009>014-019>023-028>033-038-089-141600-
   NORTHEAST OHIO

CITY           SKY/WX    TMP DP  RH WIND       PRES   REMARKS
CLE-HOPKINS    MOSUNNY   10   5  80 S6        30.50R WCI   0
CLE-LAKEFRONT  CLOUDY    13   4  67 S8        30.48S WCI   2
CUY CO. ARPT   PTSUNNY   23   3  42 S7        30.46S WCI  15
LORAIN-ELYRIA  SUNNY      4   3  96 CALM      30.48R
ASHTABULA      CLOUDY    10   4  76 SE3       30.46S
AKRON-CANTON   MOSUNNY    9   9 100 CALM      30.44S FOG
WOOSTER        SUNNY      6   5  95 CALM      30.45S FOG
MANSFIELD      SUNNY      9   3  77 SE8       30.42S WCI  -3
YOUNGSTOWN     CLOUDY     7   4  87 E3        30.44R
$$

OHZ042-051>053-060>062-070>072-077>081-141600-
  SOUTHWEST OHIO

CITY           SKY/WX    TMP DP  RH WIND       PRES   REMARKS
CINC-COVINGTON CLOUDY    17   6  62 SE10      30.40F WCI   5
CINC-LUNKEN    CLOUDY    18   5  57 SE10      30.46F WCI   6
HAMILTON       CLOUDY    17   4  56 SE8       30.44F WCI   7
DAYTON         PTSUNNY   12   5  73 SE12      30.41F WCI  -2
WRIGHT-PAT AFB NOT AVBL
DAYTON GENERAL PTSUNNY   12   1  61 SE13      30.40F WCI  -3
WILMINGTON     CLOUDY    11   2  67 SE9       30.41F WCI  -2
$$

OHZ036-037-039>041-045>050-054>059-063>069-073>076-082>088-141600-
  CENTRAL AND SOUTHEAST OHIO

CITY           SKY/WX    TMP DP  RH WIND       PRES   REMARKS
COLUMBUS       MOSUNNY   10   2  69 SE6       30.47S WCI   0
OSU AIRPORT    SUNNY     11   3  70 SE9       30.45F WCI  -2
BOLTON FIELD   SUNNY     10   3  72 SE7       30.46S WCI   0
RICKENBACK AFB NOT AVBL
NEWARK         SUNNY     11   5  77 CALM      30.46F
MARION         SUNNY     12   5  73 S12       30.44F WCI  -2
LANCASTER      CLOUDY    10   3  73 SE10      30.47F WCI  -4
ZANESVILLE     SUNNY      9   4  80 CALM      30.48R
NEW PHILLY     SUNNY      8  32 100 SE8       30.49S WCI  -4
$$



USA.gov is the U.S. government's official web portal to all federal, state and local government web resources and services.